GW1682 Weather Reports


Display with metric or nautical units.
time (UTC)temp
F
wind
direction
speed
MPH
gust
MPH
rain 1hr
in
rain 24hr
in
rain mn
in
humidity
%
barometer
mb
20260901053403 81 341 2.0 5.0 0.00 0.00 0.00 47 1014.5
20260901051901 80 329 1.0 3.0 0.00 0.00 0.00 47 1014.4
20260901050403 79 0 0.0 0.0 0.00 0.00 0.00 49 1014.3
20260901044901 78 0 0.0 0.0 0.00 0.00 0.00 49 1014.3
20260901043404 78 11 0.0 0.0 0.00 0.00 0.00 47 1014.2
20260901041908 79 326 0.0 0.0 0.00 0.00 0.00 47 1014.1
20260901040412 79 243 0.0 0.0 0.00 0.00 0.00 47 1014.1
20260901033407 79 241 0.0 2.0 0.00 0.00 0.00 46 1013.8
20260901031906 79 203 1.0 2.0 0.00 0.00 0.00 46 1013.8
20260901030409 79 152 0.0 0.0 0.00 0.00 0.00 46 1013.9
20260901024902 79 168 0.0 0.0 0.00 0.00 0.00 45 1013.8
20260901023412 80 264 0.0 0.0 0.00 0.00 0.00 44 1013.8
20260901021904 81 347 0.0 0.0 0.00 0.00 0.00 43 1013.8
20260901020404 81 27 0.0 3.0 0.00 0.00 0.00 43 1013.7
20260901014900 80 63 0.0 3.0 0.00 0.00 0.00 42 1013.7
20260901011858 81 354 0.0 3.0 0.00 0.00 0.00 42 1013.8
20260901004858 81 47 0.0 4.0 0.00 0.00 0.00 41 1013.8
20260901001901 81 133 0.0 2.0 0.00 0.00 0.00 41 1013.7
20260901000402 81 48 0.0 5.0 0.00 0.00 0.00 41 1013.8
20260831234902 81 10 0.0 3.0 0.00 0.00 0.00 41 1014.0
20260831231858 82 16 0.0 4.0 0.00 0.00 0.00 40 1014.2
20260831223401 81 72 0.0 4.0 0.00 0.00 0.00 40 1014.6
20260831221858 82 109 0.0 4.0 0.00 0.00 0.00 40 1014.7
20260831213359 82 0 0.0 2.0 0.00 0.00 0.00 40 1015.0
20260831211857 82 327 0.0 2.0 0.00 0.00 0.00 42 1015.0
20260831210358 82 1 0.0 2.0 0.00 0.00 0.00 43 1014.9
20260831204856 82 32 1.0 3.0 0.00 0.00 0.00 43 1014.8
20260831201859 82 351 0.0 3.0 0.00 0.00 0.00 42 1014.8
20260831194853 83 343 1.0 3.0 0.00 0.00 0.00 42 1014.7
20260831193400 83 25 0.0 2.0 0.00 0.00 0.00 42 1014.7
20260831191851 83 1 0.0 1.0 0.00 0.00 0.00 42 1014.5
20260831190352 84 0 0.0 0.0 0.00 0.00 0.00 42 1014.4
20260831183356 84 10 0.0 0.0 0.00 0.00 0.00 42 1014.0
20260831181851 85 62 0.0 0.0 0.00 0.00 0.00 42 1014.0
20260831180357 85 14 0.0 0.0 0.00 0.00 0.00 41 1013.9
20260831171852 87 0 0.0 2.0 0.00 0.00 0.00 39 1013.7
20260831170353 87 24 0.0 2.0 0.00 0.00 0.00 39 1013.6
20260831160352 89 32 1.0 4.0 0.00 0.00 0.00 37 1013.5
20260831154855 89 347 2.0 4.0 0.00 0.00 0.00 37 1013.7
20260831153350 90 343 2.0 5.0 0.00 0.00 0.00 37 1013.7
20260831151848 90 39 0.0 4.0 0.00 0.00 0.00 38 1013.7
20260831144845 90 245 1.0 3.0 0.00 0.00 0.00 42 1013.6
20260831143355 90 159 1.0 5.0 0.00 0.00 0.00 43 1013.8
20260831141853 91 199 1.0 7.0 0.00 0.00 0.00 42 1013.9
20260831140355 91 145 1.0 6.0 0.00 0.00 0.00 42 1014.0
20260831134850 90 189 1.0 6.0 0.00 0.00 0.00 42 1014.0
20260831133352 91 224 2.0 4.0 0.00 0.00 0.00 42 1014.1
20260831131849 91 240 2.0 7.0 0.00 0.00 0.00 43 1014.0
20260831130356 91 276 3.0 6.0 0.00 0.00 0.00 43 1014.1
20260831124851 90 243 2.0 9.0 0.00 0.00 0.00 43 1014.2
20260831123352 90 166 2.0 6.0 0.00 0.00 0.00 42 1014.3
20260831121849 91 241 1.0 7.0 0.00 0.00 0.00 42 1014.4
20260831114849 91 302 2.0 10.0 0.00 0.00 0.00 39 1014.4
20260831113351 91 316 2.0 6.0 0.00 0.00 0.00 39 1014.6
20260831111851 92 323 2.0 7.0 0.00 0.00 0.00 37 1014.8
20260831110351 92 341 1.0 9.0 0.00 0.00 0.00 39 1014.9
20260831103351 90 289 1.0 6.0 0.00 0.00 0.00 40 1015.3
20260831101849 90 334 3.0 10.0 0.00 0.00 0.00 40 1015.3
20260831100353 90 327 2.0 7.0 0.00 0.00 0.00 39 1015.4
20260831091847 89 334 2.0 6.0 0.00 0.00 0.00 40 1015.7
20260831090349 89 4 3.0 9.0 0.00 0.00 0.00 41 1015.8
20260831084847 88 23 3.0 9.0 0.00 0.00 0.00 41 1015.9
20260831083348 87 28 1.0 5.0 0.00 0.00 0.00 42 1016.0
20260831081846 87 299 0.0 6.0 0.00 0.00 0.00 44 1016.0
20260831080346 87 333 2.0 9.0 0.00 0.00 0.00 44 1015.9
20260831074844 85 0 4.0 9.0 0.00 0.00 0.00 45 1015.9
20260831073349 85 351 1.0 6.0 0.00 0.00 0.00 47 1015.8
20260831071845 84 38 2.0 5.0 0.00 0.00 0.00 47 1015.8
20260831070346 83 312 2.0 5.0 0.00 0.00 0.00 47 1015.8
20260831064844 83 321 2.0 4.0 0.00 0.00 0.00 47 1015.8
20260831061839 81 52 0.0 0.0 0.00 0.00 0.00 50 1016.0
20260831060345 80 237 0.0 0.0 0.00 0.00 0.00 51 1015.9